.
WxDataArchive / Data Records for 2014-10-30
2014-10-29 October 2014 2014-10-31

Data Records for Thursday, 30 October 2014

Time	Temp	Chill	HIndex	Humid	Dewpt	 Wind 	HiWind	WindDir	Rain 	Barom
-----	----	-----	------	-----	-----	------	------	-------	-----	-----
00:00	43.8	43.8	43.8	71	35.0	0	1	315	0.00	30.111 
00:05	43.6	43.6	43.6	72	35.2	0	0	---	0.00	30.111 
00:10	43.6	43.6	43.6	72	35.2	0	0	---	0.00	30.111 
00:15	43.6	43.6	43.6	72	35.2	0	0	---	0.00	30.110 
00:20	43.6	43.6	43.6	73	35.5	0	0	---	0.00	30.110 
00:25	43.5	43.5	43.5	73	35.4	0	0	---	0.00	30.110 
00:30	43.5	43.5	43.5	73	35.4	0	0	---	0.00	30.108 
00:35	43.5	43.5	43.5	73	35.4	0	0	---	0.00	30.108 
00:40	43.3	43.3	43.3	74	35.6	0	0	---	0.00	30.108 
00:45	43.3	43.3	43.3	74	35.6	0	0	---	0.00	30.109 
00:50	43.3	43.3	43.3	74	35.6	0	0	---	0.00	30.109 
00:55	43.3	43.3	43.3	74	35.6	0	1	315	0.00	30.109 
01:00	43.3	43.3	43.3	73	35.2	0	1	315	0.00	30.109 
01:05	43.3	43.3	43.3	73	35.2	0	1	315	0.00	30.109 
01:10	43.5	43.5	43.5	73	35.4	0	1	315	0.00	30.109 
01:15	43.5	43.5	43.5	73	35.4	0	1	315	0.00	30.110 
01:20	43.5	43.5	43.5	73	35.4	0	1	315	0.00	30.110 
01:25	43.5	43.5	43.5	73	35.4	0	1	315	0.00	30.110 
01:30	43.5	43.5	43.5	73	35.4	0	1	315	0.00	30.110 
01:35	43.5	43.5	43.5	73	35.4	0	0	---	0.00	30.110 
01:40	43.5	43.5	43.5	74	35.8	0	0	---	0.00	30.110 
01:45	43.3	43.3	43.3	74	35.6	0	1	315	0.00	30.109 
01:50	43.3	43.3	43.3	74	35.6	0	0	---	0.00	30.109 
01:55	43.3	43.3	43.3	73	35.2	0	1	315	0.00	30.109 
02:00	43.5	43.5	43.5	74	35.8	0	1	315	0.00	30.110 
02:05	43.5	43.5	43.5	74	35.8	0	0	---	0.00	30.110 
02:10	43.3	43.3	43.3	74	35.6	0	0	---	0.00	30.110 
02:15	43.3	43.3	43.3	74	35.6	0	0	---	0.00	30.110 
02:20	43.3	43.3	43.3	74	35.6	0	0	---	0.00	30.110 
02:25	43.3	43.3	43.3	74	35.6	0	0	---	0.00	30.110 
02:30	43.3	43.3	43.3	74	35.6	0	0	---	0.00	30.110 
02:35	43.3	43.3	43.3	74	35.6	0	0	---	0.00	30.110 
02:40	43.3	43.3	43.3	75	35.9	0	0	---	0.00	30.110 
02:45	43.3	43.3	43.3	75	35.9	0	0	---	0.00	30.110 
02:50	43.3	43.3	43.3	74	35.6	0	0	---	0.00	30.110 
02:55	43.3	43.3	43.3	74	35.6	0	0	---	0.00	30.110 
03:00	43.5	43.5	43.5	74	35.8	0	1	315	0.00	30.111 
03:05	43.5	43.5	43.5	74	35.8	0	0	---	0.00	30.111 
03:10	43.5	43.5	43.5	74	35.8	0	0	---	0.00	30.111 
03:15	43.5	43.5	43.5	73	35.4	0	1	315	0.00	30.112 
03:20	43.5	43.5	43.5	73	35.4	0	0	---	0.00	30.112 
03:25	43.5	43.5	43.5	74	35.8	0	0	---	0.00	30.112 
03:30	43.5	43.5	43.5	74	35.8	0	0	---	0.00	30.110 
03:35	43.5	43.5	43.5	74	35.8	0	0	---	0.00	30.110 
03:40	43.5	43.5	43.5	74	35.8	0	1	315	0.00	30.110 
03:45	43.3	43.3	43.3	74	35.6	0	0	---	0.00	30.111 
03:50	43.3	43.3	43.3	74	35.6	0	0	---	0.00	30.111 
03:55	43.3	43.3	43.3	75	35.9	0	0	---	0.00	30.111 
04:00	43.3	43.3	43.3	74	35.6	0	0	---	0.00	30.112 
04:05	43.3	43.3	43.3	75	35.9	0	0	---	0.00	30.112 
04:10	43.3	43.3	43.3	75	35.9	0	0	---	0.00	30.112 
04:15	43.3	43.3	43.3	75	35.9	0	0	---	0.00	30.113 
04:20	43.3	43.3	43.3	76	36.3	0	0	---	0.00	30.113 
04:25	43.3	43.3	43.3	76	36.3	0	0	---	0.00	30.113 
04:30	43.3	43.3	43.3	76	36.3	0	0	---	0.00	30.115 
04:35	43.3	43.3	43.3	75	35.9	0	0	---	0.00	30.115 
04:40	43.3	43.3	43.3	75	35.9	0	0	---	0.00	30.115 
04:45	43.3	43.3	43.3	75	35.9	0	0	---	0.00	30.117 
04:50	43.3	43.3	43.3	76	36.3	0	0	---	0.00	30.117 
04:55	43.3	43.3	43.3	76	36.3	0	0	---	0.00	30.117 
05:00	43.3	43.3	43.3	76	36.3	0	1	315	0.00	30.123 
05:05	43.3	43.3	43.3	76	36.3	0	1	315	0.00	30.123 
05:10	43.3	43.3	43.3	76	36.3	0	1	315	0.00	30.123 
05:15	43.3	43.3	43.3	76	36.3	0	0	---	0.00	30.118 
05:20	43.3	43.3	43.3	76	36.3	0	0	---	0.00	30.118 
05:25	43.3	43.3	43.3	76	36.3	0	0	---	0.00	30.118 
05:30	43.3	43.3	43.3	76	36.3	0	0	---	0.00	30.118 
05:35	43.3	43.3	43.3	76	36.3	0	0	---	0.00	30.118 
05:40	43.3	43.3	43.3	76	36.3	0	1	315	0.00	30.118 
05:45	43.3	43.3	43.3	77	36.6	0	0	---	0.00	30.122 
05:50	43.3	43.3	43.3	76	36.3	0	1	315	0.00	30.122 
05:55	43.3	43.3	43.3	77	36.6	0	1	315	0.00	30.122 
06:00	43.3	43.3	43.3	76	36.3	0	0	---	0.00	30.125 
06:05	43.3	43.3	43.3	77	36.6	0	0	---	0.00	30.125 
06:10	43.3	43.3	43.3	77	36.6	0	0	---	0.00	30.125 
06:15	43.3	43.3	43.3	77	36.6	0	1	315	0.00	30.127 
06:20	43.3	43.3	43.3	77	36.6	0	1	315	0.00	30.127 
06:25	43.3	43.3	43.3	77	36.6	0	0	---	0.00	30.127 
06:30	43.3	43.3	43.3	77	36.6	0	0	---	0.00	30.127 
06:35	43.3	43.3	43.3	77	36.6	0	0	---	0.00	30.127 
06:40	43.3	43.3	43.3	77	36.6	0	0	---	0.00	30.127 
06:45	43.3	43.3	43.3	77	36.6	0	0	---	0.00	30.127 
06:50	43.3	43.3	43.3	77	36.6	0	0	---	0.00	30.127 
06:55	43.3	43.3	43.3	77	36.6	0	0	---	0.00	30.127 
07:00	43.3	43.3	43.3	77	36.6	0	0	---	0.00	30.126 
07:05	43.3	43.3	43.3	77	36.6	0	0	---	0.00	30.126 
07:10	43.3	43.3	43.3	77	36.6	0	0	---	0.00	30.126 
07:15	43.3	43.3	43.3	77	36.6	0	0	---	0.00	30.126 
07:20	43.3	43.3	43.3	78	36.9	0	0	---	0.00	30.126 
07:25	43.3	43.3	43.3	78	36.9	0	0	---	0.00	30.126 
07:30	43.3	43.3	43.3	78	36.9	0	0	---	0.00	30.126 
07:35	43.3	43.3	43.3	78	36.9	0	0	---	0.00	30.126 
07:40	43.3	43.3	43.3	78	36.9	0	0	---	0.00	30.126 
07:45	43.3	43.3	43.3	78	36.9	0	0	---	0.00	30.127 
07:50	43.3	43.3	43.3	79	37.2	0	0	---	0.00	30.127 
07:55	43.3	43.3	43.3	79	37.2	0	0	---	0.00	30.127 
08:00	43.3	43.3	43.3	79	37.2	0	0	---	0.00	30.127 
08:05	43.3	43.3	43.3	79	37.2	0	0	---	0.00	30.127 
08:10	43.3	43.3	43.3	79	37.2	0	0	---	0.00	30.127 
08:15	43.3	43.3	43.3	80	37.6	0	0	---	0.00	30.135 
08:20	43.2	43.2	43.2	80	37.5	0	0	---	0.00	30.135 
08:25	43.2	43.2	43.2	80	37.5	0	0	---	0.00	30.135 
08:30	43.2	43.2	43.2	80	37.5	0	0	---	0.00	30.143 
08:35	43.2	43.2	43.2	80	37.5	0	0	---	0.00	30.143 
08:40	43.3	43.3	43.3	80	37.6	0	0	---	0.00	30.143 
08:45	43.3	43.3	43.3	79	37.2	0	0	---	0.00	30.145 
08:50	43.3	43.3	43.3	79	37.2	0	0	---	0.00	30.145 
08:55	43.5	43.5	43.5	79	37.4	0	0	---	0.00	30.145 
09:00	43.5	43.5	43.5	79	37.4	0	0	---	0.00	30.143 
09:05	43.6	43.6	43.6	79	37.5	0	0	---	0.00	30.143 
09:10	43.8	43.8	43.8	78	37.4	0	0	---	0.00	30.143 
09:15	43.8	43.8	43.8	78	37.4	0	0	---	0.00	30.143 
09:20	43.9	43.9	43.9	78	37.5	0	0	---	0.00	30.143 
09:25	44.1	44.1	44.1	78	37.7	0	0	---	0.00	30.143 
09:30	44.1	44.1	44.1	78	37.7	0	0	---	0.00	30.143 
09:35	44.2	44.2	44.2	77	37.5	0	0	---	0.00	30.143 
09:40	44.3	44.3	44.3	78	37.9	0	0	---	0.00	30.143 
09:45	44.5	44.5	44.5	78	38.1	0	0	---	0.00	30.144 
09:50	44.5	44.5	44.5	78	38.1	0	0	---	0.00	30.144 
09:55	44.6	44.6	44.6	77	37.8	0	0	---	0.00	30.144 
10:00	44.6	44.6	44.6	77	37.8	0	0	---	0.00	30.144 
10:05	44.8	44.8	44.8	77	38.0	0	0	---	0.00	30.144 
10:10	44.9	44.9	44.9	76	37.8	0	0	---	0.00	30.144 
10:15	45.1	45.1	45.1	75	37.7	0	0	---	0.00	30.145 
10:20	45.2	45.2	45.2	75	37.8	0	0	---	0.00	30.145 
10:25	45.4	45.4	45.4	74	37.6	0	0	---	0.00	30.145 
10:30	45.4	45.4	45.4	74	37.6	0	0	---	0.00	30.143 
10:35	45.5	45.5	45.5	73	37.4	0	1	315	0.00	30.143 
10:40	45.7	45.7	45.7	73	37.5	0	0	---	0.00	30.143 
10:45	45.7	45.7	45.7	74	37.9	0	0	---	0.00	30.142 
10:50	45.8	45.8	45.8	74	38.0	0	0	---	0.00	30.142 
10:55	45.8	45.8	45.8	73	37.6	0	0	---	0.00	30.142 
11:00	46.0	46.0	46.0	72	37.5	0	1	315	0.00	30.141 
11:05	46.0	46.0	46.0	72	37.5	0	0	---	0.00	30.141 
11:10	46.1	46.1	46.1	72	37.6	0	1	315	0.00	30.141 
11:15	46.2	46.2	46.2	73	38.0	0	0	---	0.00	30.140 
11:20	46.4	46.4	46.4	73	38.2	0	0	---	0.00	30.140 
11:25	46.5	46.5	46.5	71	37.6	0	0	---	0.00	30.140 
11:30	46.7	46.7	46.7	69	37.1	0	0	---	0.00	30.142 
11:35	46.7	46.7	46.7	68	36.7	0	2	315	0.00	30.142 
11:40	46.7	46.7	46.7	67	36.3	0	2	315	0.00	30.142 
11:45	46.7	46.7	46.7	67	36.3	0	1	315	0.00	30.141 
11:50	46.8	46.8	46.8	68	36.8	0	1	315	0.00	30.141 
11:55	46.8	46.8	46.8	66	36.0	0	0	---	0.00	30.141 
12:00	47.0	47.0	47.0	66	36.2	0	1	315	0.00	30.142 
12:05	47.1	47.1	47.1	66	36.3	0	0	---	0.00	30.142 
12:10	47.1	47.1	47.1	65	35.9	0	1	315	0.00	30.142 
12:15	47.1	47.1	47.1	64	35.6	0	1	315	0.00	30.141 
12:20	47.1	47.1	47.1	64	35.6	0	0	---	0.00	30.141 
12:25	47.3	47.3	47.3	65	36.1	0	1	315	0.00	30.141 
12:30	47.3	47.3	47.3	63	35.4	0	1	315	0.00	30.135 
12:35	47.4	47.4	47.4	62	35.0	0	0	---	0.00	30.135 
12:40	47.4	47.4	47.4	63	35.4	0	1	315	0.00	30.135 
12:45	47.6	47.6	47.6	64	36.0	0	1	315	0.00	30.128 
12:50	47.9	47.9	47.9	64	36.3	0	1	315	0.00	30.128 
12:55	48.0	48.0	48.0	62	35.6	0	1	315	0.00	30.128 
13:00	48.3	48.3	48.3	62	35.9	0	1	315	0.00	30.125 
13:05	48.6	48.6	48.6	62	36.2	0	1	315	0.00	30.125 
13:10	48.6	48.6	48.6	60	35.3	0	0	---	0.00	30.125 
13:15	48.8	48.8	48.8	60	35.5	0	1	315	0.00	30.118 
13:20	48.8	48.8	48.8	59	35.1	0	1	315	0.00	30.118 
13:25	48.9	48.9	48.9	61	36.0	0	0	---	0.00	30.118 
13:30	48.8	48.8	48.8	59	35.1	0	1	315	0.00	30.111 
13:35	48.6	48.6	48.6	60	35.3	0	3	68	0.00	30.111 
13:40	48.6	48.6	48.6	60	35.3	0	1	68	0.00	30.111 
13:45	48.6	48.6	48.6	60	35.3	0	1	68	0.00	30.106 
13:50	48.6	48.6	48.6	60	35.3	0	1	68	0.00	30.106 
13:55	48.5	48.5	48.5	60	35.3	0	0	---	0.00	30.106 
14:00	48.3	48.3	48.3	60	35.1	0	1	68	0.00	30.098 
14:05	48.3	48.3	48.3	60	35.1	0	0	---	0.00	30.098 
14:10	48.3	48.3	48.3	60	35.1	0	1	68	0.00	30.098 
14:15	48.3	48.3	48.3	62	35.9	0	0	---	0.00	30.094 
14:20	48.3	48.3	48.3	61	35.5	0	2	68	0.00	30.094 
14:25	48.5	48.5	48.5	60	35.3	0	0	---	0.00	30.094 
14:30	48.6	48.6	48.6	61	35.8	0	2	68	0.00	30.091 
14:35	48.8	48.8	48.8	60	35.5	0	0	---	0.00	30.091 
14:40	48.8	48.8	48.8	59	35.1	0	1	68	0.00	30.091 
14:45	48.8	48.8	48.8	59	35.1	0	0	---	0.00	30.089 
14:50	48.8	48.8	48.8	58	34.7	0	2	68	0.00	30.089 
14:55	48.9	48.9	48.9	58	34.8	0	1	68	0.00	30.089 
15:00	48.9	48.9	48.9	59	35.2	0	1	68	0.00	30.078 
15:05	48.9	48.9	48.9	58	34.8	0	1	68	0.00	30.078 
15:10	49.1	49.1	49.1	59	35.4	0	1	68	0.00	30.078 
15:15	49.1	49.1	49.1	59	35.4	0	1	68	0.00	30.079 
15:20	49.2	49.2	49.2	58	35.1	0	1	68	0.00	30.079 
15:25	49.4	49.4	49.4	57	34.8	0	1	68	0.00	30.079 
15:30	49.5	49.5	49.5	58	35.3	0	1	68	0.00	30.076 
15:35	49.6	49.6	49.6	59	35.9	0	1	68	0.00	30.076 
15:40	49.6	49.6	49.6	56	34.6	0	1	68	0.00	30.076 
15:45	49.5	49.5	49.5	57	34.9	0	1	68	0.00	30.072 
15:50	49.5	49.5	49.5	57	34.9	0	1	68	0.00	30.072 
15:55	49.5	49.5	49.5	57	34.9	0	2	68	0.00	30.072 
16:00	49.5	49.5	49.5	56	34.5	0	1	68	0.00	30.071 
16:05	49.5	49.5	49.5	56	34.5	0	0	---	0.00	30.071 
16:10	49.5	49.5	49.5	57	34.9	0	1	68	0.00	30.071 
16:15	49.4	49.4	49.4	56	34.4	0	1	68	0.00	30.070 
16:20	49.2	49.2	49.2	56	34.2	0	1	68	0.00	30.070 
16:25	49.1	49.1	49.1	56	34.1	0	0	---	0.00	30.070 
16:30	49.1	49.1	49.1	56	34.1	0	1	68	0.00	30.064 
16:35	49.1	49.1	49.1	57	34.5	0	0	---	0.00	30.064 
16:40	49.1	49.1	49.1	58	35.0	0	0	---	0.00	30.064 
16:45	49.1	49.1	49.1	58	35.0	0	0	---	0.00	30.063 
16:50	49.1	49.1	49.1	57	34.5	0	1	68	0.00	30.063 
16:55	49.1	49.1	49.1	56	34.1	0	1	68	0.00	30.063 
17:00	49.1	49.1	49.1	56	34.1	0	1	68	0.00	30.063 
17:05	48.9	48.9	48.9	56	33.9	0	1	68	0.00	30.063 
17:10	48.8	48.8	48.8	57	34.3	0	1	68	0.00	30.063 
17:15	48.8	48.8	48.8	57	34.3	0	0	---	0.00	30.062 
17:20	48.8	48.8	48.8	57	34.3	0	1	68	0.00	30.062 
17:25	48.8	48.8	48.8	57	34.3	0	0	---	0.00	30.062 
17:30	48.8	48.8	48.8	57	34.3	0	1	68	0.00	30.060 
17:35	48.8	48.8	48.8	58	34.7	0	1	68	0.00	30.060 
17:40	48.8	48.8	48.8	58	34.7	0	1	68	0.00	30.060 
17:45	48.8	48.8	48.8	58	34.7	0	1	68	0.00	30.061 
17:50	48.8	48.8	48.8	57	34.3	0	1	68	0.00	30.061 
17:55	48.6	48.6	48.6	58	34.5	0	0	---	0.00	30.061 
18:00	48.5	48.5	48.5	58	34.4	0	0	---	0.00	30.061 
18:05	48.3	48.3	48.3	58	34.2	0	1	68	0.00	30.061 
18:10	48.2	48.2	48.2	59	34.6	0	0	---	0.00	30.061 
18:15	48.0	48.0	48.0	59	34.4	0	0	---	0.00	30.063 
18:20	48.0	48.0	48.0	60	34.8	0	0	---	0.00	30.063 
18:25	47.9	47.9	47.9	60	34.7	0	0	---	0.00	30.063 
18:30	47.7	47.7	47.7	60	34.5	0	0	---	0.00	30.063 
18:35	47.7	47.7	47.7	60	34.5	0	0	---	0.00	30.063 
18:40	47.6	47.6	47.6	61	34.8	0	0	---	0.00	30.063 
18:45	47.6	47.6	47.6	62	35.2	0	0	---	0.00	30.062 
18:50	47.4	47.4	47.4	62	35.0	0	0	---	0.00	30.062 
18:55	47.3	47.3	47.3	62	34.9	0	0	---	0.00	30.062 
19:00	47.1	47.1	47.1	63	35.2	0	0	---	0.00	30.062 
19:05	47.0	47.0	47.0	63	35.1	0	0	---	0.00	30.062 
19:10	47.0	47.0	47.0	64	35.5	0	0	---	0.00	30.062 
19:15	46.7	46.7	46.7	64	35.2	0	0	---	0.00	30.065 
19:20	46.5	46.5	46.5	64	35.0	0	0	---	0.00	30.065 
19:25	46.5	46.5	46.5	65	35.4	0	0	---	0.00	30.065 
19:30	46.4	46.4	46.4	65	35.3	0	0	---	0.00	30.066 
19:35	46.2	46.2	46.2	65	35.1	0	0	---	0.00	30.066 
19:40	46.1	46.1	46.1	68	36.1	0	0	---	0.00	30.066 
19:45	46.1	46.1	46.1	69	36.5	0	0	---	0.00	30.063 
19:50	46.0	46.0	46.0	69	36.4	0	0	---	0.00	30.063 
19:55	45.8	45.8	45.8	69	36.2	0	0	---	0.00	30.063 
20:00	45.7	45.7	45.7	70	36.5	0	0	---	0.00	30.060 
20:05	45.7	45.7	45.7	71	36.8	0	0	---	0.00	30.060 
20:10	45.5	45.5	45.5	71	36.7	0	0	---	0.00	30.060 
20:15	45.5	45.5	45.5	72	37.0	0	0	---	0.00	30.054 
20:20	45.4	45.4	45.4	71	36.6	0	0	---	0.00	30.054 
20:25	45.4	45.4	45.4	70	36.2	0	0	---	0.00	30.054 
20:30	45.4	45.4	45.4	70	36.2	0	0	---	0.00	30.049 
20:35	45.4	45.4	45.4	70	36.2	0	0	---	0.00	30.049 
20:40	45.5	45.5	45.5	69	35.9	0	0	---	0.00	30.049 
20:45	45.5	45.5	45.5	68	35.6	0	0	---	0.00	30.047 
20:50	45.5	45.5	45.5	68	35.6	0	1	68	0.00	30.047 
20:55	45.7	45.7	45.7	67	35.4	0	0	---	0.00	30.047 
21:00	45.7	45.7	45.7	68	35.8	0	0	---	0.00	30.045 
21:05	45.7	45.7	45.7	68	35.8	0	0	---	0.00	30.045 
21:10	45.7	45.7	45.7	68	35.8	0	0	---	0.00	30.045 
21:15	45.5	45.5	45.5	68	35.6	0	0	---	0.00	30.041 
21:20	45.5	45.5	45.5	68	35.6	0	0	---	0.00	30.041 
21:25	45.5	45.5	45.5	68	35.6	0	0	---	0.00	30.041 
21:30	45.4	45.4	45.4	68	35.5	0	0	---	0.00	30.036 
21:35	45.4	45.4	45.4	68	35.5	0	0	---	0.00	30.036 
21:40	45.4	45.4	45.4	68	35.5	0	0	---	0.00	30.036 
21:45	45.2	45.2	45.2	68	35.3	0	0	---	0.00	30.032 
21:50	45.2	45.2	45.2	68	35.3	0	0	---	0.00	30.032 
21:55	45.1	45.1	45.1	69	35.5	0	0	---	0.00	30.032 
22:00	45.1	45.1	45.1	69	35.5	0	0	---	0.00	30.032 
22:05	44.9	44.9	44.9	70	35.7	0	0	---	0.00	30.032 
22:10	44.9	44.9	44.9	70	35.7	0	0	---	0.00	30.032 
22:15	44.8	44.8	44.8	70	35.6	0	0	---	0.00	30.030 
22:20	44.8	44.8	44.8	70	35.6	0	0	---	0.00	30.030 
22:25	44.6	44.6	44.6	70	35.4	0	0	---	0.00	30.030 
22:30	44.6	44.6	44.6	71	35.8	0	0	---	0.00	30.030 
22:35	44.5	44.5	44.5	71	35.7	0	0	---	0.00	30.030 
22:40	44.5	44.5	44.5	71	35.7	0	0	---	0.00	30.030 
22:45	44.3	44.3	44.3	71	35.5	0	0	---	0.00	30.030 
22:50	44.2	44.2	44.2	72	35.8	0	0	---	0.00	30.030 
22:55	44.2	44.2	44.2	72	35.8	0	0	---	0.00	30.030 
23:00	44.1	44.1	44.1	72	35.7	0	0	---	0.00	30.030 
23:05	44.1	44.1	44.1	72	35.7	0	0	---	0.00	30.030 
23:10	43.9	43.9	43.9	73	35.8	0	0	---	0.00	30.030 
23:15	43.9	43.9	43.9	73	35.8	0	0	---	0.00	30.024 
23:20	43.8	43.8	43.8	73	35.7	0	0	---	0.00	30.024 
23:25	43.8	43.8	43.8	73	35.7	0	0	---	0.00	30.024 
23:30	43.8	43.8	43.8	73	35.7	0	0	---	0.00	30.018 
23:35	43.8	43.8	43.8	73	35.7	0	0	---	0.00	30.018 
23:40	43.8	43.8	43.8	73	35.7	0	0	---	0.00	30.018 
23:45	43.8	43.8	43.8	73	35.7	0	0	---	0.00	30.016 
23:50	43.8	43.8	43.8	73	35.7	0	0	---	0.00	30.016 
23:55	43.8	43.8	43.8	73	35.7	0	0	---	0.00	30.016 

CoCoRaHS
IN-AL-39
A2 Web Hosting
Creative Commons License
GoDaddy
search engine by freefind advanced

loaded 2018-11-21 00:47:36 • last modified 2010-11-18 10:43:29
Privacy PolicyDisclaimer
• wx.awcolley.com is powered by PmWiki v.2002016 •
• all content (unless otherwise noted) © 2018 A W Colley